Dewpoint
72 73 74 73 74 75 75 75 75 75 75 76 76 76 76 76 76 76 76 76 76 76 76 76 76 76 76 76 75 75 75 75 75 75 75 75 75 75 75 75 75 75 75 75 75 75 75 75 75 75 76 75 75 75 75 76 76 75 75 75 75 75 75 74 74 74 75 75 74 74 74 74 74 74 74 75 74 74 75 74 72 69 70 72 73
72 73 74 74 74 74 75 75 75 76 76 76 76 76 76 76 76 76 76 76 76 76 76 76 76 75 75 75 75 75 75 75 75 75 75 75 75 75 75 75 75 75 75 75 75 75 75 75 75 74 75 75 74 74 75 75 75 75 75 75 75 75 75 75 75 75 75 75 74 74 74 74 74 74 74 74 74 75 75 74 71 69 70 72 72
72 74 74 74 74 74 75 75 76 76 76 76 76 76 76 76 76 76 76 76 76 76 76 75 75 75 75 75 75 75 74 75 75 75 75 75 74 74 74 74 74 74 75 75 75 75 75 75 76 75 74 74 73 73 73 74 75 75 76 75 75 75 75 75 75 75 75 75 74 75 74 74 74 74 74 74 75 75 74 73 72 71 69 72 72
73 73 74 74 74 74 75 75 76 76 76 76 76 76 76 76 76 76 76 76 76 76 75 75 75 75 75 75 75 75 75 75 75 75 75 74 74 74 74 74 74 75 75 74 75 74 75 75 75 74 74 74 74 73 73 74 74 75 75 75 75 75 75 75 75 75 75 74 74 74 75 74 73 74 74 74 75 75 74 73 74 74 73 74 73
72 73 74 74 75 74 76 76 76 76 76 76 76 75 76 76 76 76 76 76 76 76 76 76 76 76 76 76 75 75 75 75 74 74 74 74 74 74 75 74 75 74 74 74 74 74 75 75 74 74 75 74 73 73 73 74 74 75 75 75 75 75 75 75 75 75 75 75 74 74 74 73 74 74 75 76 75 74 74 74 74 74 74 74 73
72 73 73 74 75 75 76 76 76 76 76 76 76 76 76 76 76 76 76 76 76 76 76 76 75 76 76 76 76 75 75 75 75 74 74 74 74 74 74 75 75 75 75 74 74 74 74 74 73 74 74 74 74 74 73 74 74 75 75 75 75 75 75 75 74 74 75 75 74 75 75 74 74 73 74 75 75 74 73 74 74 74 74 74 74
72 73 73 74 75 76 76 76 76 76 75 76 76 76 76 76 76 76 76 76 76 76 76 75 75 76 76 76 75 75 75 75 74 75 74 74 74 74 75 75 75 75 74 74 74 74 74 74 74 74 74 74 75 73 73 74 74 74 74 75 75 75 74 74 75 76 75 74 74 74 74 74 73 73 74 75 74 74 74 74 74 74 73 73 72
72 73 73 73 75 76 76 77 76 76 75 75 76 76 76 76 76 76 76 76 76 76 75 74 75 75 75 76 76 75 75 75 74 74 74 74 74 74 74 74 75 74 73 73 73 74 74 75 74 74 74 74 74 73 74 74 75 74 74 74 74 74 74 74 76 76 75 74 75 74 74 74 74 73 74 74 74 74 74 74 74 74 73 73 72
72 73 73 73 75 77 77 76 76 76 76 76 76 76 76 76 76 76 76 76 76 76 75 75 75 76 76 76 76 75 75 75 74 74 73 74 74 74 74 74 73 74 74 73 74 74 74 75 74 74 74 74 74 74 74 74 74 74 74 74 74 74 74 75 75 74 73 73 73 72 73 72 71 72 73 73 73 74 74 73 74 74 73 73 73
72 74 73 75 75 76 76 76 76 76 76 76 77 76 76 76 76 76 76 76 76 75 75 75 75 75 75 75 75 75 75 74 74 74 74 73 72 73 73 74 74 73 74 74 74 74 74 74 75 74 73 74 73 73 74 74 74 74 74 74 74 74 75 75 75 74 72 73 72 72 73 72 72 70 72 74 74 73 73 73 73 73 73 74 74
73 74 74 74 74 76 76 76 76 76 76 77 76 76 76 76 76 76 76 76 75 76 75 75 75 75 75 75 75 75 75 74 74 74 74 73 73 73 73 74 74 73 74 74 74 74 74 74 74 73 72 73 73 74 74 74 74 73 74 74 74 74 75 75 74 73 73 73 73 72 72 73 72 72 74 74 74 73 74 73 74 73 74 74 73
73 74 74 74 76 76 76 76 76 76 77 76 76 76 76 76 76 76 75 76 76 75 75 76 75 75 75 75 75 75 75 74 74 74 74 74 74 73 74 73 74 73 74 73 74 74 74 74 73 73 72 72 71 74 74 73 74 74 74 74 74 74 75 75 73 72 72 72 73 72 71 71 72 72 73 74 73 73 73 74 74 74 73 73 73
72 73 73 74 74 76 76 76 76 77 77 76 76 76 76 75 75 75 76 76 75 75 75 75 75 75 75 75 75 75 74 74 75 74 74 74 74 74 74 74 74 74 74 75 75 74 74 74 74 73 73 73 73 73 73 73 74 74 73 74 74 75 75 74 73 71 72 73 73 73 72 73 72 74 73 73 74 74 74 74 74 73 73 73 73
71 72 73 73 74 76 75 76 76 76 76 76 76 76 75 75 75 75 76 75 75 75 75 75 74 74 74 74 75 75 75 74 74 74 74 75 75 75 75 75 73 74 75 75 75 74 75 73 73 73 72 73 74 73 73 73 73 73 73 73 74 74 75 74 73 72 72 72 73 71 73 73 73 74 73 73 74 74 74 73 73 73 73 73 73
71 72 72 73 74 75 75 76 76 76 76 76 76 76 75 75 75 75 75 75 75 76 75 75 74 74 75 75 75 75 75 75 75 75 75 74 74 74 74 74 74 75 74 75 75 75 74 74 74 73 73 73 73 73 72 73 73 73 73 73 74 75 74 73 72 72 72 72 72 71 71 73 74 74 73 73 73 73 73 73 73 73 73 73 73
71 72 73 73 75 76 75 75 75 75 75 76 76 75 75 75 75 75 75 75 76 75 74 74 74 74 75 75 75 75 75 75 75 74 75 75 75 75 75 75 74 74 75 75 75 74 74 74 74 74 73 73 73 73 73 72 72 72 73 74 74 75 75 72 72 72 71 71 72 72 71 73 74 73 73 73 73 73 73 73 73 73 73 73 73
72 73 73 73 74 75 75 75 75 75 75 76 75 75 75 75 75 75 75 75 75 75 75 75 74 74 75 76 75 75 75 75 75 75 75 74 75 75 75 75 75 75 75 75 74 75 74 74 73 74 73 73 73 73 73 72 73 72 73 74 74 74 75 72 71 71 70 73 72 71 71 72 74 74 73 73 73 73 73 73 73 73 73 73 73
72 73 73 74 73 74 73 74 75 75 75 76 75 75 75 75 75 75 75 75 75 75 74 75 74 74 75 75 75 75 75 75 75 74 75 75 75 75 75 75 75 75 75 75 75 75 74 74 74 73 73 73 73 73 73 73 73 72 73 73 74 75 74 72 71 71 71 72 71 72 71 73 74 73 73 73 73 73 72 72 73 72 73 72 73
72 72 73 74 73 74 73 74 76 75 75 74 75 75 75 75 75 75 75 75 75 75 75 75 75 75 75 75 75 75 75 75 75 75 75 75 75 75 75 75 75 75 75 75 74 74 74 74 74 74 75 73 73 73 73 73 74 74 74 75 75 75 74 72 72 71 72 71 71 72 72 75 74 73 73 73 72 73 72 72 72 73 73 72 72
73 73 72 74 74 74 74 74 75 74 74 72 74 75 75 75 75 75 75 75 75 75 75 75 75 75 76 75 75 75 75 74 75 74 74 75 74 74 74 74 74 76 76 76 75 75 75 75 75 74 75 75 74 73 74 74 74 74 76 75 75 74 71 71 73 72 71 71 72 72 75 74 73 73 72 73 73 73 73 72 73 73 73 72 73
71 73 73 74 74 74 74 74 74 74 73 74 74 75 74 75 75 75 75 75 75 75 75 75 75 75 75 75 75 76 76 76 75 74 74 74 74 75 74 76 74 75 75 75 75 75 75 74 75 75 75 75 74 74 74 74 75 75 75 75 74 71 72 72 71 72 72 71 72 73 75 74 73 73 73 73 73 73 72 73 73 73 72 73 73
71 72 73 74 74 74 74 73 74 74 74 74 74 75 76 75 76 76 76 76 75 75 76 76 75 76 75 76 77 75 75 76 76 74 73 74 74 75 74 75 74 75 75 75 75 75 75 75 75 75 75 75 75 75 75 75 75 75 74 74 72 72 73 73 72 71 71 72 73 74 74 74 74 73 73 72 73 73 72 73 73 73 72 73 73
70 72 73 73 74 73 73 73 73 74 74 75 74 75 76 77 76 76 76 75 76 76 76 77 77 77 77 76 76 75 76 76 76 75 75 75 74 75 75 75 75 75 74 74 75 74 74 74 75 76 75 74 74 74 73 73 73 74 73 73 73 72 73 73 72 72 72 72 72 74 73 74 74 73 72 73 72 73 73 73 72 73 73 73 73
68 70 71 72 73 72 73 73 74 74 74 74 74 75 76 75 75 75 76 76 76 76 76 77 77 76 76 76 74 75 75 76 76 76 75 75 75 75 75 75 75 75 75 74 75 75 75 76 76 74 73 73 73 72 71 72 71 72 72 71 71 73 72 72 70 71 71 72 72 74 74 74 74 74 73 74 73 73 73 73 73 73 73 73 73
69 70 71 71 72 72 72 74 74 74 74 73 74 74 75 74 74 75 75 75 75 75 76 76 76 76 76 75 74 74 74 75 75 74 74 75 76 75 75 75 75 75 74 75 74 75 75 75 74 74 75 73 72 72 71 71 72 71 72 72 71 72 70 71 71 70 72 72 73 74 74 74 74 73 73 73 73 73 73 74 73 73 73 73 73
70 69 70 71 72 72 72 73 73 74 74 73 73 75 74 74 74 75 74 75 74 75 75 75 75 76 76 74 74 74 74 74 75 75 75 75 73 73 73 74 73 74 74 73 73 74 74 73 73 73 73 74 73 73 72 72 71 71 72 73 73 72 71 70 70 71 72 72 73 75 75 74 74 74 74 74 74 74 74 73 73 73 74 73 73
69 69 70 71 71 72 73 73 73 74 74 74 75 75 74 74 74 74 74 74 74 75 74 75 75 76 75 74 72 73 73 73 74 74 74 74 73 73 72 73 73 72 73 72 73 74 73 73 73 74 74 72 72 73 73 72 72 71 71 72 73 72 71 71 71 71 72 72 73 74 74 74 73 73 73 74 74 74 74 74 74 74 73 74 73
69 69 69 70 72 70 73 73 73 73 74 74 75 74 74 73 73 75 74 74 74 73 73 73 75 75 75 74 73 73 72 72 73 74 74 74 73 73 73 71 72 73 74 74 73 74 74 74 75 74 74 74 72 72 72 72 72 71 71 72 72 72 72 70 71 72 71 72 73 74 74 74 73 73 73 74 74 73 73 73 73 73 74 74 73
68 69 70 70 71 71 72 72 73 73 73 74 74 74 74 74 74 74 73 75 74 73 73 74 73 74 74 74 74 73 72 73 73 74 74 73 73 73 72 71 73 73 74 73 74 75 74 73 74 74 74 74 72 72 73 72 73 72 70 71 71 73 72 72 72 71 70 71 73 73 74 73 73 73 73 73 73 73 73 73 73 73 73 72 72
67 69 69 70 70 71 70 71 72 73 73 72 74 74 74 73 75 74 74 75 73 73 74 72 73 73 73 75 73 73 72 73 73 74 73 73 73 73 73 73 73 73 73 74 74 74 73 73 73 74 73 73 73 73 73 71 70 71 71 71 71 70 73 71 72 70 71 71 72 73 74 73 73 73 73 73 73 73 73 72 73 73 72 72 72
68 68 69 70 71 71 70 72 73 74 73 72 74 74 74 74 74 74 74 74 74 74 73 73 72 73 74 76 75 75 73 72 73 73 73 73 73 73 73 73 72 73 74 74 74 74 73 73 74 74 74 75 74 73 73 72 72 71 71 70 70 72 72 73 71 70 67 71 72 72 73 74 73 73 73 73 73 73 73 73 72 72 72 72 72
68 68 69 71 70 70 70 71 72 73 74 73 74 74 74 74 75 74 73 74 75 73 73 73 73 73 75 76 75 75 76 75 75 75 74 74 73 72 72 73 72 73 74 73 73 74 74 75 76 77 77 76 75 75 74 71 71 69 72 70 70 71 71 72 69 68 69 70 71 72 72 71 73 74 73 73 73 73 73 73 73 73 73 73 72
68 68 70 70 69 70 70 72 72 73 74 72 73 73 73 73 74 73 74 74 74 73 72 72 73 75 76 76 76 76 76 75 75 75 75 74 74 74 72 73 74 74 73 74 75 76 75 75 75 75 75 74 73 74 74 71 70 71 69 69 69 70 71 72 72 70 68 68 70 70 71 72 72 73 74 74 74 73 73 73 73 73 73 73 73
68 70 69 69 69 70 71 71 72 72 73 72 73 73 73 73 74 74 74 74 73 73 72 73 73 74 75 76 75 76 75 75 76 76 75 74 74 74 73 72 74 74 75 76 75 75 74 74 74 73 73 73 71 72 71 71 69 70 70 69 70 71 71 69 70 70 70 69 69 71 70 71 72 73 73 74 75 75 74 74 74 74 74 73 73
69 69 69 69 70 71 71 70 72 72 73 73 73 73 73 73 73 74 73 74 74 73 72 73 73 73 74 74 76 76 76 76 76 76 75 74 72 72 73 73 75 75 75 76 75 75 75 74 74 72 72 71 71 73 72 71 70 70 71 71 69 69 70 68 70 70 70 71 72 69 71 70 71 73 73 73 73 75 75 75 75 74 74 74 74
69 69 69 69 70 71 72 70 71 72 72 72 73 74 73 73 73 74 74 75 73 73 72 72 72 72 73 75 76 76 77 76 76 77 75 74 73 72 73 75 76 75 76 76 76 74 75 75 75 73 71 70 71 70 72 72 71 69 70 71 70 71 70 70 70 68 69 72 72 72 72 72 72 72 73 72 73 75 75 75 75 75 75 75 75
69 70 70 70 70 70 72 70 70 71 72 71 73 74 74 74 74 73 73 75 72 72 73 73 73 73 72 73 75 76 78 77 77 77 76 75 73 73 73 75 76 75 76 75 74 74 75 73 75 75 74 73 70 67 70 72 71 69 68 67 68 71 70 71 70 70 70 72 72 70 71 72 73 73 73 74 74 73 75 75 75 75 75 76 75
70 70 71 70 70 71 71 71 71 71 72 72 73 73 74 74 74 73 75 73 72 72 72 73 73 72 74 74 76 76 78 78 78 77 77 75 74 74 75 76 76 76 76 75 75 74 75 74 74 76 75 74 71 70 67 68 68 68 67 65 70 69 70 71 72 72 72 72 73 73 72 71 71 71 71 72 71 74 74 75 75 76 76 76 75
70 70 71 71 71 71 72 72 72 72 72 74 74 74 74 75 73 74 73 74 75 73 73 73 72 73 71 75 77 76 76 77 77 77 77 74 74 75 75 77 76 76 76 75 74 75 75 75 74 74 77 76 74 73 73 71 69 67 64 66 68 72 72 70 72 71 71 69 69 71 70 73 72 73 74 74 72 73 74 75 74 75 74 75 75
70 70 71 72 72 73 72 73 73 72 73 74 74 73 73 72 71 72 72 73 74 74 74 73 73 73 74 75 76 76 76 77 77 77 77 75 74 75 76 76 76 76 75 73 73 73 74 74 75 74 74 75 74 74 73 72 69 69 69 69 70 70 71 70 70 70 71 71 71 72 69 69 73 72 71 73 72 70 74 75 76 74 75 76 75
70 71 71 71 72 72 73 72 72 73 73 72 73 72 71 71 71 70 70 71 73 74 73 73 73 73 75 75 76 74 76 77 77 77 76 76 76 76 77 76 76 76 76 75 74 75 76 76 76 76 73 73 72 72 71 70 70 68 70 67 67 69 67 70 69 67 68 69 70 71 71 72 72 73 74 73 73 72 73 76 75 76 75 76 76
71 71 71 71 72 71 72 72 73 73 73 73 73 72 73 71 70 70 69 70 72 73 73 74 72 73 76 77 76 75 76 77 77 77 77 76 76 75 76 77 77 76 77 76 75 76 77 76 75 74 75 73 72 70 68 68 68 63 63 64 64 65 67 66 66 65 65 66 67 70 72 69 68 69 72 74 75 74 74 75 76 75 76 76 76
69 70 71 71 72 71 73 73 73 73 74 74 74 73 73 73 71 71 71 70 72 72 71 72 73 72 75 76 76 77 77 76 77 77 77 76 76 76 76 76 76 76 76 76 76 76 76 76 75 73 72 74 73 73 73 70 63 66 67 65 63 62 67 67 64 64 62 63 65 64 66 65 66 70 73 73 73 74 72 73 75 76 77 77 76
69 70 70 71 71 72 73 74 74 74 74 74 74 74 73 74 73 73 73 72 72 73 74 74 74 74 74 75 77 77 76 75 76 76 76 76 76 76 75 76 77 77 76 76 76 75 76 76 74 75 74 71 69 71 71 72 68 66 63 62 63 61 57 63 64 64 62 62 62 61 64 66 66 70 73 72 69 73 75 75 76 77 78 77 77
68 69 70 70 70 71 73 74 74 74 74 74 74 74 74 73 73 73 73 73 73 73 73 72 73 74 73 75 75 77 77 76 76 76 75 76 77 76 76 76 76 77 76 75 75 73 74 75 75 74 74 72 69 69 72 69 68 70 66 66 63 62 60 62 60 65 59 58 60 60 63 64 64 70 71 70 72 74 71 72 76 77 78 78 78
68 69 70 70 71 72 73 74 74 74 74 74 75 74 73 72 72 71 71 71 71 71 71 71 72 73 71 73 75 76 76 76 76 76 76 76 77 76 77 76 76 76 76 75 75 74 74 74 74 74 74 75 74 70 69 72 71 72 71 67 68 64 64 65 63 62 69 59 61 60 63 62 63 67 72 71 70 70 73 72 75 76 76 76 76
67 68 69 70 71 72 73 73 74 74 74 74 75 74 73 73 72 71 71 71 71 71 73 72 72 73 73 75 75 76 77 75 75 76 76 76 77 77 77 76 75 76 76 76 75 73 72 74 74 74 74 76 75 72 71 69 72 72 70 67 68 68 66 65 63 64 61 66 63 59 59 62 62 62 63 65 65 67 70 71 69 69 72 75 75
66 67 69 70 72 73 73 73 74 74 74 74 74 74 73 73 72 72 71 71 69 71 74 74 74 75 75 75 75 75 77 77 76 77 77 76 77 77 77 76 76 75 76 75 75 74 75 76 76 76 75 76 76 73 71 70 70 70 71 69 70 70 70 67 65 63 65 63 62 60 59 60 61 61 62 61 61 63 66 72 70 70 71 73 74
65 67 68 70 71 72 73 73 73 74 74 74 74 73 73 73 72 71 71 71 71 72 73 74 74 75 75 76 77 75 77 77 76 76 77 76 77 76 77 77 76 76 76 75 75 74 76 77 77 76 75 75 76 75 74 74 71 68 70 71 69 67 66 66 67 67 65 62 58 59 61 62 62 62 64 65 64 64 65 66 69 68 70 73 74
65 67 68 69 70 72 73 73 73 73 73 74 74 74 73 73 72 72 72 71 71 72 72 73 74 76 75 76 77 77 75 75 76 76 77 77 76 77 76 76 76 74 75 75 76 76 76 77 77 76 76 75 76 76 74 74 72 71 70 72 71 69 68 66 63 64 63 66 62 59 60 60 61 63 66 62 66 65 66 67 68 66 68 71 72
65 66 67 68 69 71 72 73 73 73 73 73 74 73 73 73 72 72 72 72 71 72 72 73 74 75 75 75 76 76 76 75 75 76 76 76 77 77 75 75 75 76 76 76 76 75 75 76 76 77 77 76 76 76 75 75 75 74 72 74 71 67 68 65 66 66 64 63 64 60 58 60 59 60 65 65 70 65 69 69 66 65 71 71 72